Regional Weather Roundup
Issued by NWS

Home | Current Version | Previous Version | Text Only | Print | Product List | Glossary Off
Versions: 1 2 3 4 5 6 7 8 9 10 11 12 13 14 15 16 17 18 19 20 21 22 23 24 25 26 27 28 29 30 31 32 33 34 35 36 37 38 39 40 41 42 43 44 45 46 47 48 49 50

000
ASUS45 KCYS 261310
RWRWY

WYOMING REGIONAL WEATHER ROUNDUP
NATIONAL WEATHER SERVICE CHEYENNE WY
600 AM MST WED NOV 26 2014

NOTE:  "FAIR" INDICATES FEW OR NO CLOUDS BELOW 12,000 FEET
WITH NO SIGNIFICANT WEATHER AND/OR OBSTRUCTIONS TO VISIBILITY.

WYZ001-261400-
YELLOWSTONE NATIONAL PARK

CITY           SKY/WX    TMP DP  RH WIND       PRES   REMARKS
LK YELLOWSTONE   N/A     32  28  85 VRB6      30.12R WCI  26
W YELLOWSTONE  NOT AVBL

$$
WYZ002>013-054>058-071-098>099-261400-
NORTHERN WYOMING

CITY           SKY/WX    TMP DP  RH WIND       PRES   REMARKS
JACKSON        CLOUDY    39  32  75 SW14      30.15R WCI  31
CODY           CLOUDY    25  23  93 CALM      30.11S
GREYBULL       LGT SNOW  26  26 100 CALM      30.16S FOG
WORLAND        CLOUDY    22  21  96 CALM      30.15F
SHERIDAN       LGT SNOW  27  23  85 CALM      30.16S FOG
BUFFALO        LGT SNOW  24  21  88 CALM      30.14S VSB 1
GILLETTE       CLOUDY    25  22  88 W8        30.15R WCI  16
HULETT           N/A    N/A N/A N/A MISG        N/A
NEWCASTLE      PTSUNNY   25  23  93 N5        30.16S WCI  19

$$
WYZ014>020-022>026-101>103-261400-
CENTRAL WYOMING

CITY           SKY/WX    TMP DP  RH WIND       PRES   REMARKS
BIG PINEY      PTCLDY   N/A N/A N/A NW16G30   30.18R
PINEDALE       CLOUDY    34  32  93 NW18      30.17R WCI  23
DUBOIS         DRIZZLE   36  30  80 W25G44    30.03S WCI  23
LANDER         CLOUDY    25  24  96 CALM      30.10R
RIVERTON       CLOUDY    25  21  85 E6        30.11F WCI  18
CASPER         CLOUDY    21  18  88 CALM      30.12F
DOUGLAS        FLURRIES N/A N/A N/A NW3       30.15F

$$
WYZ021-027>030-104>119-261400-
SOUTHERN WYOMING

CITY           SKY/WX    TMP DP  RH WIND       PRES   REMARKS
EVANSTON       PTCLDY    33  28  81 W16       30.30R WCI  23
FORT BRIDGER   FAIR      37  32  84 W14G26    30.29R WCI  28
ROCK SPRINGS   CLOUDY    37  30  75 W29G36    30.18R WCI  25
DIXON          CLOUDY    38  30  72 SW9G16    30.23S WCI  32
RAWLINS        MOCLDY    36  30  79 W25G35    30.09R WCI  24
SARATOGA       FAIR      37  32  81 W32G40    30.09F WCI  25
LARAMIE        FLURRIES  20  18  92 SE6       30.06F WCI  12
CHEYENNE       FLURRIES  22  19  89 N9        30.14S WCI  12
TORRINGTON     CLOUDY    28  22  78 CALM      30.17R
PINE BLUFFS    MIX PCPN  27  23  86 NW8       30.17S WCI  18

$$


USA.gov is the U.S. government's official web portal to all federal, state and local government web resources and services.